sat.trackr.live / text

‹ back to catalog

STARLINK-6316

NORAD 57335 · 2023-099H

PAYLOAD ACTIVE UNKNOWN

§ Identity

Operator
Country
US
Launch date
2023-07-16
Launch site
AFETR
Launch vehicle
Mass (kg)
RCS (m²)

Purposes: comms

External: N2YO · Heavens-Above · Gunter

§ Orbital elements

Epoch: 2026-05-25T03:10:09.602976Z

Period
94.27 min
Inclination
43.0024°
Eccentricity
0.0001169
Mean motion
15.27576510 rev/d
Perigee alt
482.3 km
Apogee alt
483.9 km
Semi-major
6,861.2 km
B*
4.1240e-6
RAAN
177.6080°
Arg perigee
276.6627°
Mean anomaly
83.4091°
Rev number
15,780

§ Raw data

STARLINK-63161 57335U 23099H   26145.13205559 -.00000149  00000+0  41240-5 0  99942 57335  43.0024 177.6080 0001169 276.6627  83.4091 15.27576510157805

JSON: /api/v1/satellites/57335 · /tle

For live sub-satellite position, see the globe view (requires WebGL).

§ Visibility from observer

Set your observer location to see the next 7 days of passes ≥ 10°. The values pass through the URL so the page stays shareable.

No JS? Fill the form by hand. The geolocation button needs JavaScript.